Regional Weather Roundup
Issued by NWS

Home | Current Version | Previous Version | Graphics & Text | Print | Product List | Glossary On
Versions: 1 2 3 4 5 6 7 8 9 10 11 12 13 14 15 16 17 18 19 20 21 22 23 24 25 26 27 28 29 30 31 32 33 34 35 36 37 38 39 40 41 42 43 44 45 46 47 48 49 50
000
ASUS43 KBIS 040510
RWRND

NORTH DAKOTA REGIONAL WEATHER ROUNDUP
NATIONAL WEATHER SERVICE BISMARCK ND
1200 AM CDT SAT JUL 04 2015

NOTE: "FAIR" INDICATES FEW OR NO CLOUDS BELOW 12,000 FEET WITH NO
SIGNIFICANT WEATHER AND/OR OBSTRUCTIONS TO VISIBILITY.


NDZ001>003-009>011-017-040600-
NORTHWEST NORTH DAKOTA

CITY           SKY/WX    TMP DP  RH WIND       PRES   REMARKS
WILLISTON      PTCLDY    76  64  66 S8        29.85S
MINOT          CLEAR     67  63  87 SE3       29.87S FOG
MINOT AFB      CLEAR     66  66 100 SE5       29.86S
$$

NDZ018>021-031>035-040>046-040600-
SOUTHWEST NORTH DAKOTA

CITY           SKY/WX    TMP DP  RH WIND       PRES   REMARKS
BISMARCK       CLOUDY    68  63  84 CALM      29.91S HAZE
DICKINSON      CLEAR     67  62  84 SE9       29.90S HAZE
GARRISON         N/A     68  65  90 S6        29.89R
HETTINGER ARPT CLEAR     68  61  78 SE8       29.93F HAZE
$$

NDZ004>008-012>016-024-026-027-054-040600-
NORTHEAST NORTH DAKOTA

CITY           SKY/WX    TMP DP  RH WIND       PRES   REMARKS
GRAND FORKS    CLOUDY    62  59  90 CALM      29.89S FOG
GRND FRKS AFB  CLEAR     62  61  95 S3        29.90S
DEVILS LAKE    CLEAR     70  61  73 SE8       29.89S
$$

NDZ022-023-025-028>030-036>039-047>053-040600-
SOUTHEAST NORTH DAKOTA

CITY           SKY/WX    TMP DP  RH WIND       PRES   REMARKS
FARGO          CLEAR     65  61  87 SE3       29.90S FOG
JAMESTOWN      CLOUDY    69  63  81 S5        29.91S HAZE
$$



USA.gov is the U.S. government's official web portal to all federal, state and local government web resources and services.